TimeEDT,TemperatureF,Dew PointF,Humidity,Sea Level PressureIn,VisibilityMPH,Wind Direction,Wind SpeedMPH,Gust SpeedMPH,PrecipitationIn,Events,Conditions,WindDirDegrees,DateUTC
12:15 AM,60.8,57.2,88,30.04,10.0,SSE,4.6,-,N/A,,Clear,160,2013-09-25 04:15:00
12:35 AM,60.8,57.2,88,30.04,10.0,SSE,4.6,-,N/A,,Clear,150,2013-09-25 04:35:00
12:55 AM,60.8,57.2,88,30.04,10.0,SE,4.6,-,N/A,,Clear,140,2013-09-25 04:55:00
1:15 AM,60.8,57.2,88,30.03,10.0,SSE,4.6,-,N/A,,Clear,150,2013-09-25 05:15:00
1:35 AM,60.8,57.2,88,30.03,10.0,SSE,4.6,-,N/A,,Clear,150,2013-09-25 05:35:00
1:55 AM,60.8,57.2,88,30.03,10.0,SSE,4.6,-,N/A,,Clear,150,2013-09-25 05:55:00
2:15 AM,60.8,57.2,88,30.03,10.0,SE,3.5,-,N/A,,Clear,140,2013-09-25 06:15:00
2:35 AM,60.8,57.2,88,30.02,7.0,ESE,3.5,-,N/A,,Clear,110,2013-09-25 06:35:00
2:55 AM,60.8,57.2,88,30.01,7.0,Calm,Calm,-,N/A,,Clear,0,2013-09-25 06:55:00
3:35 AM,57.2,55.4,94,30.00,1.0,ESE,4.6,-,N/A,,Mist,110,2013-09-25 07:35:00
3:55 AM,55.4,55.4,100,30.00,1.8,ESE,3.5,-,N/A,,Mist,110,2013-09-25 07:55:00
4:15 AM,57.2,55.4,94,29.99,4.0,SE,3.5,-,N/A,,Clear,140,2013-09-25 08:15:00
4:35 AM,57.2,57.2,100,29.98,4.0,Calm,Calm,-,N/A,,Clear,0,2013-09-25 08:35:00
4:55 AM,57.2,55.4,94,29.98,4.0,SE,3.5,-,N/A,,Clear,140,2013-09-25 08:55:00
5:35 AM,55.4,55.4,100,30.00,1.5,SSW,3.5,-,N/A,,Mist,210,2013-09-25 09:35:00
5:55 AM,55.4,55.4,100,30.01,0.5,Calm,Calm,-,N/A,Fog,Fog,0,2013-09-25 09:55:00
6:15 AM,55.4,53.6,94,30.01,0.2,Calm,Calm,-,N/A,Fog,Fog,0,2013-09-25 10:15:00
6:35 AM,55.4,55.4,100,30.01,0.8,Calm,Calm,-,N/A,,Overcast,0,2013-09-25 10:35:00
6:55 AM,55.4,55.4,100,30.00,1.2,Calm,Calm,-,N/A,,Overcast,0,2013-09-25 10:55:00
7:15 AM,55.4,53.6,94,30.01,0.2,Calm,Calm,-,N/A,Fog,Fog,0,2013-09-25 11:15:00
7:35 AM,55.4,53.6,94,30.00,0.5,ESE,4.6,-,N/A,Fog,Fog,110,2013-09-25 11:35:00
7:55 AM,57.2,57.2,100,30.00,2.5,ESE,3.5,-,N/A,,Mostly Cloudy,120,2013-09-25 11:55:00
8:15 AM,59.0,57.2,94,30.00,2.5,Calm,Calm,-,N/A,,Scattered Clouds,0,2013-09-25 12:15:00
8:35 AM,57.2,57.2,100,29.99,2.0,Calm,Calm,-,N/A,,Clear,0,2013-09-25 12:35:00
8:55 AM,59.0,57.2,94,30.00,2.5,Calm,Calm,-,N/A,,Clear,0,2013-09-25 12:55:00
9:15 AM,60.8,59.0,94,30.00,2.0,Calm,Calm,-,N/A,,Clear,0,2013-09-25 13:15:00
9:35 AM,60.8,60.8,100,29.99,3.0,Calm,Calm,-,N/A,,Clear,0,2013-09-25 13:35:00
9:55 AM,60.8,60.8,100,30.00,4.0,Calm,Calm,-,N/A,,Scattered Clouds,0,2013-09-25 13:55:00
10:15 AM,62.6,60.8,94,30.01,4.0,Calm,Calm,-,N/A,,Mostly Cloudy,0,2013-09-25 14:15:00
10:35 AM,62.6,62.6,100,30.02,7.0,SSE,3.5,-,N/A,,Scattered Clouds,160,2013-09-25 14:35:00
10:55 AM,62.6,60.8,94,30.02,7.0,Calm,Calm,-,N/A,,Clear,0,2013-09-25 14:55:00
11:15 AM,62.6,60.8,94,30.02,7.0,Calm,Calm,-,N/A,,Clear,0,2013-09-25 15:15:00
11:35 AM,62.6,60.8,94,30.02,7.0,Calm,Calm,-,N/A,Rain,Light Rain,0,2013-09-25 15:35:00
11:55 AM,64.4,60.8,88,30.02,7.0,Calm,Calm,-,N/A,,Scattered Clouds,0,2013-09-25 15:55:00
12:15 PM,64.4,60.8,88,30.02,10.0,Calm,Calm,-,N/A,,Clear,0,2013-09-25 16:15:00
12:35 PM,64.4,60.8,88,30.02,7.0,Calm,Calm,-,N/A,Rain,Light Rain,0,2013-09-25 16:35:00
12:55 PM,64.4,62.6,94,30.01,7.0,Calm,Calm,-,N/A,Rain,Light Rain,0,2013-09-25 16:55:00
1:15 PM,64.4,60.8,88,30.01,10.0,SE,3.5,-,N/A,,Clear,130,2013-09-25 17:15:00
1:35 PM,64.4,60.8,88,30.01,10.0,SE,3.5,-,N/A,,Clear,130,2013-09-25 17:35:00
2:15 PM,66.2,60.8,83,29.99,10.0,South,3.5,-,N/A,,Clear,180,2013-09-25 18:15:00
2:35 PM,66.2,60.8,83,29.99,10.0,Calm,Calm,-,N/A,,Scattered Clouds,0,2013-09-25 18:35:00
2:55 PM,66.2,60.8,83,29.98,10.0,SSE,4.6,-,N/A,,Scattered Clouds,150,2013-09-25 18:55:00
3:15 PM,66.2,60.8,83,29.98,10.0,Calm,Calm,-,N/A,Rain,Light Rain,0,2013-09-25 19:15:00
3:35 PM,64.4,60.8,88,29.98,10.0,SSE,4.6,-,N/A,Rain,Light Rain,150,2013-09-25 19:35:00
3:55 PM,64.4,60.8,88,29.98,10.0,South,3.5,-,N/A,Rain,Light Rain,170,2013-09-25 19:55:00
4:15 PM,64.4,60.8,88,29.98,5.0,Calm,Calm,-,N/A,Rain,Rain,0,2013-09-25 20:15:00
4:55 PM,62.6,60.8,94,29.98,5.0,Calm,Calm,-,N/A,Rain,Rain,0,2013-09-25 20:55:00
5:15 PM,62.6,60.8,94,29.97,3.0,Calm,Calm,-,N/A,Rain,Light Rain,0,2013-09-25 21:15:00
5:35 PM,62.6,60.8,94,29.97,3.0,ESE,3.5,-,N/A,Rain,Light Rain,110,2013-09-25 21:35:00
5:55 PM,62.6,60.8,94,29.95,5.0,East,8.1,-,N/A,Rain,Light Rain,90,2013-09-25 21:55:00
6:15 PM,62.6,60.8,94,29.98,5.0,West,5.8,-,N/A,Rain,Rain,260,2013-09-25 22:15:00
6:35 PM,62.6,60.8,94,29.99,3.0,West,4.6,-,N/A,,Mostly Cloudy,270,2013-09-25 22:35:00
6:55 PM,62.6,60.8,94,29.98,4.0,Calm,Calm,-,N/A,,Mostly Cloudy,0,2013-09-25 22:55:00
7:15 PM,60.8,60.8,100,29.98,1.2,Calm,Calm,-,N/A,,Mostly Cloudy,0,2013-09-25 23:15:00
7:35 PM,60.8,60.8,100,29.98,1.0,SSE,3.5,-,N/A,,Overcast,150,2013-09-25 23:35:00
7:55 PM,60.8,59.0,94,29.98,2.5,Calm,Calm,-,N/A,,Mostly Cloudy,0,2013-09-25 23:55:00
8:15 PM,60.8,59.0,94,29.98,3.0,South,3.5,-,N/A,,Scattered Clouds,180,2013-09-26 00:15:00
8:35 PM,60.8,57.2,88,29.99,3.0,Calm,Calm,-,N/A,,Clear,0,2013-09-26 00:35:00
8:55 PM,60.8,57.2,88,29.99,5.0,Calm,Calm,-,N/A,,Clear,0,2013-09-26 00:55:00
9:15 PM,59.0,57.2,94,29.99,0.5,Calm,Calm,-,N/A,Fog,Fog,0,2013-09-26 01:15:00
9:35 PM,60.8,57.2,88,30.00,0.2,Calm,Calm,-,N/A,Fog,Fog,0,2013-09-26 01:35:00
9:55 PM,59.0,57.2,94,29.99,1.2,Calm,Calm,-,N/A,,Mostly Cloudy,0,2013-09-26 01:55:00
10:15 PM,59.0,57.2,94,30.00,0.2,Calm,Calm,-,N/A,Fog,Fog,0,2013-09-26 02:15:00
10:35 PM,59.0,57.2,94,30.00,0.2,Calm,Calm,-,N/A,Fog,Fog,0,2013-09-26 02:35:00
10:55 PM,59.0,57.2,94,30.00,0.2,Calm,Calm,-,N/A,Fog,Fog,0,2013-09-26 02:55:00
11:15 PM,59.0,57.2,94,30.00,0.8,Calm,Calm,-,N/A,,Overcast,0,2013-09-26 03:15:00
11:35 PM,59.0,57.2,94,30.00,0.8,Calm,Calm,-,N/A,,Overcast,0,2013-09-26 03:35:00
11:55 PM,59.0,57.2,94,30.00,0.8,Calm,Calm,-,N/A,,Overcast,0,2013-09-26 03:55:00